SL-8 R/B

Satellite information

Favourite Embed

Satellite Type and Status

ROCKET BODYIN ORBIT

Key statistics

Satellite SL-8 R/B at a glance.

Uptime

18053

Days in orbit

Revolutions

≈ 13.7

Per day

Orbit

LEO

Low Earth Orbit

Inclination

83.0

Latest

Satellite identification and parameters

Extended collection of information and parameters for SL-8 R/B.

Object identification

Identified? True

Debris? False

Object name: SL-8 R/B

International designator: 1976-011B

Object number (NORAD): 8646

Object ID (CCSDS): 8646

Country: COMMONWEALTH OF INDEPENDENT STATES (CIS)

Current information (Y/N): Y

RCS size: LARGE

Orbital parameters

Period: 104.8 minutes

Inclination: 82.9713 deg

SMA: 7363.229 km

Apoapsis: 989.589 km

Periapsis: 980.6 km

RAAN: 324.635 deg

Eccentricy: 0.0006104

Argument of periapsis: 31.6904 deg

Mean anomaly: 88.9791 deg

Mean motion: 13.7404285 rev/day

Mean motion (dot): 0.00000004 rev/day2

B* drag term: -0.000012203 1/REarth

Two-line elements (TLE)

Creation date: July 8, 2025, 2:27 a.m.

Reference frame: TEME

Reference center: EARTH

Epoch: July 7, 2025, 10:31 p.m. UTC

TLE line 0: 0 SL-8 R/B

TLE line 1: 1 08646U 76011B 25188.93829409 .00000004 00000-0 -12203-4 0 9994

TLE line 2: 2 08646 82.9713 324.6350 0006104 31.6904 88.9791 13.74042850477445

Live tracking on map

Real-time ground track for satellite SL-8 R/B.

In-orbit conjunctions

A list of the most updated potential collisions computed for object SL-8 R/B.

Target Orbit TCA Probability of collision Miss distance Type
SL-8 DEB LEO 2025-03-15 22:30:50 0.0001007676 397.0 (m) DEBRIS
SL-8 R/B LEO 2024-09-12 21:10:08 0.0001020523 335.0 (m) ROCKET BODY

Associated space launch

The first soviet navigation system called Tsiklon consisted of Zaliv satellites in low earth orbit.

SL-8 R/B was lifted into orbit during the mission ‘Kosmos-3M | Zaliv 20’, on board a Kosmos-3M space rocket.

The launch took place on Feb. 3, 1976, 8:16 a.m. from 132/1 (132L).

For more information about the launch, click the button.

Launch to space Kosmos-3M | Zaliv 20
Kosmos-3M | Zaliv 20

Agency: N/A

Status: Launch Successful

Launch date: Feb. 3, 1976, 8:16 a.m. UTC

Rocket: Kosmos-3M

Launch pad: 132/1 (132L)

Location: Plesetsk Cosmodrome, Russian Federation

...

Latest news about this satellite

There are no fresh news available about this satellite. Check back as we update our databases every day.


Newsletter sign-up

Weekly statistics, charts and insights to help you stay on top of the space industry.